Lyndonville, VT

7:41 PM EST on January 18, 2018 (GMT -0500)
Lyndonville

Weather History for KCDA - October, 2012

Change the Weather History Date:

Tuesday, October 9, 2012

  Actual Average (K1V4) Record (K1V4)
Temperature  
Mean Temperature 42 °F -  
Max Temperature 57 °F 57 °F 89 °F (1909)
Min Temperature 29 °F 36 °F 24 °F (1929)
Degree Days  
Heating Degree Days 22    
Moisture  
Dew Point 35 °F    
Average Humidity 75    
Maximum Humidity 94    
Minimum Humidity 49    
Precipitation  
Precipitation 0.00 in - - ()
Sea Level Pressure  
Sea Level Pressure 30.25 in    
Wind  
Wind Speed 1 mph (South)    
Max Wind Speed 8 mph    
Max Gust Speed -    
Visibility 9 miles    
Events Fog    
Averages and records for this station are not official NWS values.
T = Trace of Precipitation, MM = Missing Value Source: NWS Daily Summary

Daily Weather History Graph

Daily Weather History Graph

Search for Another Location

Airport or City:

Trip Planner

Search our weather history database for the weather conditions in past years. The results will help you decide how hot, cold, wet, or windy it might be!

Date:

Astronomy

Oct. 09, 2012 Rise Set
Actual Time 6:56 AM EDT 6:13 PM EDT
Civil Twilight 6:27 AM EDT 6:42 PM EDT
Nautical Twilight 5:53 AM EDT 7:16 PM EDT
Astronomical Twilight 5:19 AM EDT 7:49 PM EDT
Moon 12:15 AM EDT (10/9) 2:51 PM EDT (10/9)
Length of Visible Light 12h 15m
Length of Day
11h 17m
Last Quarter, 37% of the Moon is Illuminated
Oct 9
Last Quarter
Oct 15
New
Oct 21
First Quarter
Oct 29
Full
Nov 6
Last Quarter

Hourly Weather History & Observations

Time (EDT) Temp. Windchill Dew Point Humidity Pressure Visibility Wind Dir Wind Speed Gust Speed Precip Events Conditions
12:15 AM 34.0 °F - 31.6 °F 91% 30.32 in 10.0 mi Calm Calm - N/A   Clear
12:35 AM 33.3 °F - 31.1 °F 92% 30.31 in 10.0 mi Calm Calm - N/A   Clear
12:55 AM 33.4 °F - 31.5 °F 92% 30.31 in 10.0 mi Calm Calm - N/A   Clear
1:15 AM 32.4 °F - 30.6 °F 93% 30.31 in 5.0 mi Calm Calm - N/A   Clear
1:35 AM 32.5 °F - 30.9 °F 94% 30.31 in 5.0 mi Calm Calm - N/A   Clear
1:55 AM 32.0 °F - 30.0 °F 92% 30.32 in 10.0 mi Calm Calm - N/A   Clear
2:15 AM 30.9 °F 27.5 °F 28.9 °F 92% 30.31 in 10.0 mi NE 3.5 mph - N/A   Clear
2:55 AM 31.6 °F - 29.5 °F 92% 30.31 in 10.0 mi Calm Calm - N/A   Clear
3:15 AM 32.0 °F - 29.8 °F 92% 30.30 in 10.0 mi Calm Calm - N/A   Clear
3:35 AM 31.6 °F - 29.3 °F 91% 30.31 in 1.2 mi Calm Calm - N/A   Mist
4:15 AM 31.6 °F - 29.5 °F 92% 30.31 in 1.5 mi Calm Calm - N/A   Mist
4:35 AM 31.1 °F - 29.1 °F 92% 30.31 in 2.5 mi Calm Calm - N/A   Clear
4:55 AM 30.4 °F - 28.4 °F 92% 30.31 in 3.0 mi Calm Calm - N/A   Scattered Clouds
5:15 AM 29.8 °F - 27.9 °F 92% 30.32 in 0.8 mi Calm Calm - N/A   Mostly Cloudy
5:35 AM 30.0 °F - 28.0 °F 92% 30.32 in 0.5 mi Calm Calm - N/A Fog Light Freezing Fog
5:55 AM 29.8 °F - 27.7 °F 92% 30.32 in 0.8 mi Calm Calm - N/A   Mostly Cloudy
6:15 AM 30.0 °F - 28.0 °F 92% 30.32 in 10.0 mi Calm Calm - N/A   Clear
6:35 AM 30.6 °F - 28.6 °F 92% 30.31 in 7.0 mi Calm Calm - N/A   Clear
7:15 AM 30.2 °F - 28.2 °F 92% 30.31 in 4.0 mi Calm Calm - N/A   Clear
7:35 AM 30.4 °F - 28.4 °F 92% 30.31 in 5.0 mi Calm Calm - N/A   Clear
7:55 AM 31.5 °F - 29.5 °F 92% 30.32 in 10.0 mi Calm Calm - N/A   Clear
8:15 AM 32.0 °F - 30.2 °F 93% 30.32 in 10.0 mi Calm Calm - N/A   Clear
8:35 AM 33.1 °F - 31.6 °F 94% 30.32 in 10.0 mi Calm Calm - N/A   Clear
8:55 AM 35.2 °F - 33.1 °F 92% 30.31 in 10.0 mi Calm Calm - N/A   Clear
9:15 AM 36.5 °F - 34.3 °F 92% 30.31 in 10.0 mi Calm Calm - N/A   Clear
9:35 AM 37.4 °F - 33.6 °F 86% 30.31 in 10.0 mi Calm Calm - N/A   Clear
9:55 AM 40.6 °F - 34.3 °F 78% 30.31 in 10.0 mi Calm Calm - N/A   Clear
10:15 AM 44.2 °F - 34.7 °F 69% 30.31 in 10.0 mi Calm Calm - N/A   Clear
10:35 AM 45.0 °F - 35.2 °F 69% 30.31 in 10.0 mi Calm Calm - N/A   Mostly Cloudy
10:55 AM 47.7 °F - 37.0 °F 67% 30.30 in 10.0 mi SSW 3.5 mph - N/A   Overcast
11:15 AM 50.5 °F - 37.2 °F 60% 30.30 in 10.0 mi SSW 4.6 mph - N/A   Overcast
11:35 AM 49.5 °F - 36.9 °F 62% 30.30 in 10.0 mi SW 4.6 mph - N/A   Overcast
11:55 AM 50.7 °F - 36.5 °F 58% 30.29 in 10.0 mi SW 3.5 mph - N/A   Overcast
12:15 PM 51.6 °F - 35.8 °F 55% 30.29 in 10.0 mi South 4.6 mph - N/A   Overcast
12:35 PM 52.7 °F - 37.2 °F 56% 30.28 in 10.0 mi SSW 6.9 mph - N/A   Overcast
12:55 PM 53.4 °F - 36.7 °F 53% 30.26 in 10.0 mi South 8.1 mph - N/A   Scattered Clouds
1:15 PM 52.7 °F - 36.9 °F 55% 30.25 in 10.0 mi South 4.6 mph - N/A   Clear
1:35 PM 54.7 °F - 38.1 °F 54% 30.24 in 10.0 mi South 6.9 mph - N/A   Mostly Cloudy
1:55 PM 54.5 °F - 37.9 °F 54% 30.23 in 10.0 mi South 3.5 mph - N/A   Overcast
2:15 PM 55.6 °F - 37.6 °F 51% 30.22 in 10.0 mi South 4.6 mph - N/A   Overcast
2:35 PM 56.3 °F - 37.4 °F 49% 30.22 in 10.0 mi South 3.5 mph - N/A   Mostly Cloudy
2:55 PM 56.8 °F - 38.1 °F 50% 30.21 in 10.0 mi South 8.1 mph - N/A   Mostly Cloudy
3:15 PM 54.7 °F - 36.5 °F 50% 30.21 in 10.0 mi South 5.8 mph - N/A   Mostly Cloudy
3:35 PM 54.3 °F - 37.8 °F 54% 30.20 in 10.0 mi South 4.6 mph - N/A   Scattered Clouds
3:55 PM 54.5 °F - 37.8 °F 53% 30.20 in 10.0 mi South 5.8 mph - N/A   Mostly Cloudy
4:15 PM 54.5 °F - 37.4 °F 52% 30.20 in 10.0 mi South 6.9 mph - N/A   Mostly Cloudy
4:35 PM 54.5 °F - 38.3 °F 54% 30.19 in 10.0 mi South 8.1 mph - N/A   Mostly Cloudy
4:55 PM 52.9 °F - 38.1 °F 57% 30.19 in 10.0 mi South 5.8 mph - N/A   Mostly Cloudy
5:15 PM 52.7 °F - 38.7 °F 59% 30.19 in 10.0 mi South 5.8 mph - N/A   Overcast
5:35 PM 52.7 °F - 39.2 °F 60% 30.19 in 10.0 mi South 5.8 mph - N/A   Overcast
5:55 PM 51.8 °F - 39.0 °F 62% 30.18 in 10.0 mi South 5.8 mph - N/A   Overcast
6:15 PM 50.9 °F - 39.0 °F 64% 30.18 in 10.0 mi South 4.6 mph - N/A   Overcast
6:55 PM 50.0 °F - 39.2 °F 66% 30.18 in 10.0 mi South 3.5 mph - N/A   Overcast
7:15 PM 49.8 °F - 39.2 °F 67% 30.18 in 10.0 mi Calm Calm - N/A   Overcast
7:35 PM 49.5 °F - 39.4 °F 68% 30.18 in 10.0 mi Calm Calm - N/A   Overcast
7:55 PM 49.1 °F - 39.7 °F 70% 30.17 in 10.0 mi SE 3.5 mph - N/A   Overcast
8:15 PM 49.1 °F - 40.1 °F 71% 30.16 in 10.0 mi SSE 3.5 mph - N/A   Overcast
8:35 PM 49.1 °F - 39.9 °F 71% 30.16 in 10.0 mi SSE 4.6 mph - N/A   Overcast
8:55 PM 49.1 °F - 40.1 °F 71% 30.17 in 10.0 mi Calm Calm - N/A   Overcast
9:15 PM 48.4 °F - 39.7 °F 72% 30.16 in 10.0 mi Calm Calm - N/A   Overcast
9:35 PM 48.2 °F - 39.9 °F 73% 30.16 in 10.0 mi Calm Calm - N/A   Overcast
9:55 PM 47.5 °F - 39.7 °F 75% 30.16 in 10.0 mi Calm Calm - N/A   Mostly Cloudy
10:15 PM 46.4 °F - 39.7 °F 78% 30.15 in 10.0 mi Calm Calm - N/A   Scattered Clouds
10:35 PM 45.7 °F - 39.4 °F 79% 30.15 in 10.0 mi Calm Calm - N/A   Clear
10:55 PM 45.7 °F - 39.6 °F 79% 30.15 in 10.0 mi Calm Calm - N/A   Scattered Clouds
11:15 PM 46.6 °F - 40.6 °F 80% 30.14 in 10.0 mi Calm Calm - N/A   Overcast
11:35 PM 46.8 °F - 41.0 °F 80% 30.13 in 10.0 mi SSE 3.5 mph - N/A   Overcast
11:55 PM 46.6 °F - 41.0 °F 81% 30.13 in 10.0 mi SSE 4.6 mph - N/A   Overcast